[[{"header":{"parameterUnit":"m.s-1","parameterCategory":1,"la1":30.2991,"la2":30.254,"lo1":-89.0895,"lo2":-89.0444,"dy":0.0017,"dx":0.0017,"nx":28,"ny":28,"refTime":"2025-08-30T03:00:00:Z","depth":0,"parameterNumber":2,"parameterNumberName":"U-component_of_WINDS"},"data":[0,0,0,0,0,0,0,0,0,0,0,0,0,0,0,0,0,0,0,0,0,0,0,0,0,0,0,0,0,0,0,0,0,0,0,0,0,0,0,0,0,0,0,0,0,0,0,0,0,0,0,0,0,0,0,0,0,0,-2.5075,-2.5076,0,-2.5081,-2.5081,-2.5081,-2.5004,-2.5002,-2.5,-2.4998,-2.5007,-2.5009,-2.5011,0,0,0,0,0,0,0,0,0,0,0,0,0,-2.5,-2.5002,-2.5075,-2.5076,-2.5076,-2.5081,-2.5081,-2.5081,-2.5005,-2.5002,-2.4999,-2.4997,-2.5006,-2.5008,-2.5011,0,0,0,0,0,0,0,0,0,0,0,0,0,-2.5022,-2.5003,-2.5075,-2.5038,-2.5035,-2.5081,-2.5081,-2.5081,-2.5005,-2.5002,-2.4999,-2.4996,-2.5005,-2.5008,-2.5011,-2.5095,0,0,-2.5022,-2.5023,0,0,0,0,0,0,0,0,-2.5021,-2.5025,-2.5043,-2.5041,-2.5037,-2.5039,-2.5058,-2.5086,-2.5006,-2.5016,-2.4998,-2.4994,-2.502,-2.5022,-2.503,-2.5096,-2.5096,-2.5022,-2.5024,-2.5025,-2.5026,0,0,0,0,0,0,0,-2.502,-2.5025,-2.5078,-2.5044,-2.504,-2.5021,-2.5021,-2.5063,-2.5036,-2.5015,-2.501,-2.5011,-2.5018,-2.5027,-2.503,-2.5096,-2.5022,-2.5025,-2.5027,-2.5028,-2.5231,-2.5235,0,0,0,0,0,0,-2.5023,-2.5024,-2.5078,-2.5078,-2.5021,-2.5025,-2.5025,-2.5041,-2.5035,-2.5031,-2.5014,-2.5008,-2.5023,-2.5026,-2.503,-2.5128,-2.5025,-2.5028,-2.503,-2.5228,-2.5232,-2.5236,0,0,0,0,0,0,-2.5022,-2.5029,-2.5077,-2.5049,-2.5054,-2.503,-2.5049,-2.5043,-2.5052,-2.5034,-2.5029,-2.5028,-2.5021,-2.5025,-2.5079,-2.5127,-2.503,-2.5033,-2.5224,-2.5229,-2.5234,-2.5325,0,0,0,0,0,0,-2.502,-2.5029,-2.506,-2.5051,-2.5056,-2.5127,-2.5052,-2.5046,-2.5058,-2.505,-2.5046,-2.5043,-2.5018,-2.5075,-2.5083,-2.513,-2.5035,-2.5219,-2.5226,-2.5232,-2.5318,-2.5333,-2.5346,0,0,0,0,0,-2.5018,-2.5086,-2.5062,-2.5069,-2.5094,-2.513,-2.5133,-2.5102,-2.5062,-2.5094,-2.5082,-2.5043,-2.512,-2.5081,-2.5089,-2.5138,-2.5216,-2.5224,-2.5232,-2.5312,-2.533,-2.5345,0,0,0,0,0,0,-2.5102,-2.5084,-2.5057,-2.5124,-2.5129,-2.5116,-2.5155,-2.5123,-2.514,-2.5131,-2.5094,-2.5094,-2.5155,-2.5151,-2.5108,-2.5219,-2.5161,-2.5171,-2.5219,-2.5237,-2.525,-2.525,-2.5038,0,0,0,0,0,-2.5128,-2.5158,-2.514,-2.5201,-2.5205,-2.518,-2.5194,-2.517,-2.5174,-2.5176,-2.5168,-2.5174,-2.52,-2.5218,-2.524,-2.5316,-2.5315,-2.5354,-2.5368,-2.5379,-2.5389,-2.543,-2.5448,-2.5261,-2.5261,-2.5261,0,0,-2.5183,-2.5177,-2.5198,-2.5218,-2.5219,-2.5251,-2.5182,-2.5219,-2.5243,-2.5182,-2.5233,-2.5227,-2.5232,-2.5298,-2.5326,-2.5297,-2.544,-2.5389,-2.5399,-2.5402,-2.544,-2.5458,-2.5473,-2.5266,-2.5265,-2.5264,0,0,-2.53,-2.5298,-2.5349,-2.5351,-2.5352,-2.5335,-2.5348,-2.534,-2.5334,-2.5384,-2.5339,-2.5367,-2.5412,-2.5417,-2.5425,-2.5544,-2.5509,-2.5552,-2.5626,-2.5666,-2.5681,-2.5694,-2.5737,-2.5753,-2.5561,-2.5561,-2.5562,0,-2.5369,-2.5415,-2.5379,-2.5419,-2.543,-2.5374,-2.5426,-2.543,-2.544,-2.5449,-2.5415,-2.5471,-2.5469,-2.5536,-2.5565,-2.5573,-2.5587,-2.5553,-2.5681,-2.5694,-2.5705,-2.5747,-2.5763,-2.5567,-2.5566,-2.5566,-2.5565,0,-2.55,-2.5532,-2.5573,-2.5583,-2.5598,-2.5644,-2.5616,-2.5635,-2.561,-2.5597,-2.5649,-2.5645,-2.5667,-2.568,-2.5656,-2.5744,-2.5726,-2.5688,-2.5629,-2.5729,-2.5767,-2.5783,-2.5574,-2.5572,-2.5571,-2.5569,0,0,-2.5672,-2.566,-2.5676,-2.568,-2.5678,-2.5703,-2.5746,-2.5766,-2.5784,-2.5792,-2.5829,-2.5867,-2.5832,-2.5842,-2.5817,-2.5853,-2.5948,-2.581,-2.5809,-2.5837,-2.6047,-2.6077,-2.6096,-2.5924,-2.5927,-2.593,-2.6047,0,-2.5787,-2.5859,-2.5828,-2.5905,-2.5935,-2.5883,-2.5921,-2.5924,-2.5912,-2.5937,-2.5924,-2.5953,-2.5903,-2.5909,-2.5941,-2.593,-2.599,-2.5921,-2.596,-2.5962,-2.5962,-2.6115,-2.6147,-2.6258,-2.6061,-2.6064,-2.6066,0,-2.5931,-2.5944,-2.6024,-2.6016,-2.6027,-2.6062,-2.6078,-2.6101,-2.6104,-2.6093,-2.6104,-2.6072,-2.6115,-2.6055,-2.6115,-2.6068,-2.6082,-2.6079,-2.6083,-2.6087,-2.6021,-2.6125,-2.6293,-2.631,-2.6088,-2.6087,-2.6085,0,-2.605,-2.6088,-2.614,-2.6145,-2.6137,-2.6163,-2.6161,-2.616,-2.6174,-2.6188,-2.6197,-2.6216,-2.6227,-2.6243,-2.6218,-2.6176,-2.6282,-2.6219,-2.6275,-2.6276,-2.6301,-2.63,-2.6475,-2.6307,-2.6307,-2.6307,-2.6306,0,-2.6183,-2.6234,-2.6194,-2.6227,-2.6282,-2.6246,-2.6303,-2.6295,-2.6295,-2.6326,-2.6281,-2.6311,-2.6274,-2.6302,-2.6281,-2.6335,-2.634,-2.6333,-2.6328,-2.6338,-2.6339,-2.6348,-2.6341,-2.6311,-2.631,-2.6309,-2.6309,0,-2.6327,-2.6302,-2.6356,-2.6343,-2.6341,-2.6383,-2.6373,-2.6403,-2.6388,-2.6428,-2.6435,-2.6412,-2.6441,-2.6416,-2.6445,-2.6431,-2.6503,-2.6485,-2.6502,-2.6498,-2.6555,-2.6551,-2.6744,-2.6768,-2.6583,-2.6585,-2.6586,0,-2.6414,-2.6452,-2.6443,-2.646,-2.6461,-2.6489,-2.6502,-2.6468,-2.6484,-2.649,-2.652,-2.6545,-2.6564,-2.6613,-2.66,-2.6622,-2.6606,-2.6671,-2.6609,-2.6618,-2.6609,-2.6608,-2.6612,-2.6685,-2.6687,-2.6689,-2.669,0,-2.6572,-2.6558,-2.6579,-2.6596,-2.6613,-2.6625,-2.6633,-2.665,-2.6615,-2.6636,-2.6664,-2.6679,-2.6707,-2.6734,-2.6751,-2.675,-2.6716,-2.671,-2.6724,-2.6737,-2.6745,-2.6743,-2.6538,-2.6706,-2.6705,-2.6703,-2.6703,-2.6702,-2.6691,-2.6723,-2.6722,-2.6747,-2.6749,-2.6758,-2.6786,-2.6774,-2.6797,-2.6817,-2.6795,-2.6831,-2.6833,-2.6852,-2.6855,-2.6883,-2.6856,-2.6877,-2.6882,-2.6888,-2.6897,-2.6739,-2.6886,-2.6886,-2.6885,-2.6885,-2.6884,0,-2.6849,-2.6845,-2.6868,-2.6881,-2.6901,-2.6864,-2.6872,-2.6891,-2.6923,-2.6927,-2.6946,-2.698,-2.7005,-2.6993,-2.7015,-2.704,-2.7025,-2.7047,-2.7046,-2.7046,-2.692,-2.6906,-2.7059,-2.7059,-2.7059,-2.7059,-2.7059,-2.7059,-2.6933,-2.6985,-2.697,-2.7023,-2.7019,-2.7052,-2.706,-2.7068,-2.7072,-2.7111,-2.7131,-2.7122,-2.7121,-2.7142,-2.7164,-2.716,-2.7171,-2.72,-2.719,-2.7072,-2.7055,-2.7039,-2.7026,-2.7202,-2.7202,-2.7315,-2.7316,-2.7317]},{"header":{"parameterUnit":"m.s-1","parameterCategory":1,"la1":30.2991,"la2":30.254,"lo1":-89.0895,"lo2":-89.0444,"dy":0.0017,"dx":0.0017,"nx":28,"ny":28,"refTime":"2025-08-30T03:00:00:Z","depth":0,"parameterNumber":3,"parameterNumberName":"V-component_of_WINDS"},"data":[0,0,0,0,0,0,0,0,0,0,0,0,0,0,0,0,0,0,0,0,0,0,0,0,0,0,0,0,0,0,0,0,0,0,0,0,0,0,0,0,0,0,0,0,0,0,0,0,0,0,0,0,0,0,0,0,0,0,0.0258,0.0256,0,0.0069,0.0067,0.0065,-0.0063,-0.0064,-0.0065,-0.0066,-0.0259,-0.0263,-0.0268,0,0,0,0,0,0,0,0,0,0,0,0,0,0.0509,0.0505,0.0258,0.0256,0.0253,0.0069,0.0067,0.0064,-0.0063,-0.0064,-0.0065,-0.0066,-0.0258,-0.0263,-0.0268,0,0,0,0,0,0,0,0,0,0,0,0,0,0.0368,0.0504,0.0258,0.0168,0.0158,0.007,0.0067,0.0064,-0.0063,-0.0064,-0.0066,-0.0067,-0.0256,-0.0262,-0.0269,-0.0281,0,0,-0.0288,-0.0291,0,0,0,0,0,0,0,0,0.0376,0.0359,0.0183,0.0174,0.0162,0.0025,0.0084,-0.0052,-0.0062,0.0021,-0.0066,-0.0067,-0.0163,-0.0178,-0.021,-0.029,-0.0298,-0.0289,-0.0293,-0.0296,-0.0297,0,0,0,0,0,0,0,0.0386,0.0366,0.0183,0.0181,0.0168,0.0136,0.0115,0.0058,-0.0061,0.0014,0.0004,-0.0017,-0.0169,-0.0203,-0.0215,-0.0301,-0.0289,-0.0294,-0.0298,-0.0301,-0.0401,-0.04,0,0,0,0,0,0,0.041,0.0375,0.0189,0.0177,0.0268,0.0133,0.0109,0.0071,-0.0061,-0.0082,-0.0015,-0.0022,-0.0192,-0.0208,-0.0223,-0.0247,-0.0295,-0.0302,-0.0305,-0.0402,-0.0401,-0.0399,0,0,0,0,0,0,0.0416,0.0395,0.0197,0.0274,0.0246,0.013,0.0088,0.0068,0.0033,-0.0083,-0.0105,-0.0028,-0.0194,-0.0214,-0.0266,-0.0255,-0.0304,-0.031,-0.0404,-0.0402,-0.04,-0.0294,0,0,0,0,0,0,0.0424,0.0398,0.0391,0.0275,0.0243,0.0157,0.0089,0.0065,0.0022,0.0012,-0.0101,-0.0121,-0.0196,-0.0255,-0.0272,-0.0265,-0.0315,-0.0405,-0.0403,-0.0401,-0.0299,-0.0289,-0.028,0,0,0,0,0,0.0433,0.0429,0.0392,0.037,0.0232,0.0158,0.014,0.0053,0.0024,0.0017,-0.0058,-0.0117,-0.0253,-0.0259,-0.0279,-0.0274,-0.0406,-0.0403,-0.0401,-0.0303,-0.0291,-0.028,0,0,0,0,0,0,0.055,0.0412,0.0369,0.0327,0.0255,0.0137,0.0125,0.0069,0.0004,-0.0003,-0.0107,-0.0132,-0.0173,-0.0229,-0.0233,-0.0293,-0.0337,-0.0338,-0.0256,-0.0245,-0.0236,-0.0222,-0.0321,0,0,0,0,0,0.0571,0.0522,0.0404,0.0378,0.0344,0.0242,0.0206,0.0145,0.0067,0.0036,-0.0043,-0.0116,-0.0176,-0.0213,-0.0274,-0.0307,-0.0334,-0.0313,-0.0303,-0.0295,-0.0295,-0.0317,-0.031,-0.039,-0.039,-0.039,0,0,0.0613,0.0532,0.0507,0.0399,0.0337,0.0288,0.0216,0.0168,0.0131,0.0028,-0.0026,-0.0085,-0.0175,-0.0217,-0.024,-0.0265,-0.0278,-0.0291,-0.0284,-0.0289,-0.0314,-0.0306,-0.0299,-0.0389,-0.0389,-0.0389,0,0,0.0664,0.0599,0.0569,0.0508,0.0415,0.0346,0.034,0.023,0.0186,0.013,0.0052,0.0007,-0.0093,-0.0154,-0.0197,-0.0166,-0.0224,-0.0183,-0.0135,-0.0155,-0.0148,-0.0143,-0.0133,-0.0129,-0.0182,-0.0182,-0.0182,0,0.0728,0.0652,0.0561,0.0517,0.0472,0.0378,0.0348,0.0293,0.0185,0.0156,0.013,0.0002,-0.0064,-0.0123,-0.0115,-0.0146,-0.0158,-0.0172,-0.0142,-0.0138,-0.0134,-0.0126,-0.0122,-0.0177,-0.0177,-0.0178,-0.0178,0,0.0735,0.0684,0.0671,0.0569,0.0522,0.0486,0.039,0.0354,0.0299,0.0234,0.0179,0.0096,0.0016,-0.0001,-0.0056,-0.0067,-0.008,-0.0122,-0.0169,-0.012,-0.0114,-0.0111,-0.0169,-0.0171,-0.0173,-0.0174,0,0,0.0851,0.0701,0.0698,0.065,0.0541,0.0499,0.0459,0.0381,0.0352,0.0281,0.0244,0.0163,0.0123,0.0074,0.0012,-0.0005,0.0023,-0.0046,-0.005,-0.0032,0.0005,0.0036,0.0041,-0.0014,-0.0014,-0.0014,0.0012,0,0.0885,0.0806,0.0725,0.0675,0.0626,0.0537,0.0502,0.0432,0.0371,0.032,0.0253,0.0196,0.0149,0.0118,0.0097,0.0024,0.0029,0.0022,-0.0051,-0.0052,-0.0028,0.0044,0.0076,0.0104,0.0013,0.0014,0.0014,0,0.0912,0.0846,0.0792,0.0687,0.0664,0.0633,0.0556,0.0509,0.0428,0.0384,0.0331,0.0265,0.0218,0.018,0.0114,0.0111,0.0077,0.0037,0.0036,0.0023,-0.0018,0.0032,0.0111,0.0114,0.0017,0.0017,0.0017,0,0.1001,0.0898,0.0852,0.0814,0.0692,0.0672,0.0621,0.0538,0.0497,0.043,0.0402,0.033,0.0291,0.0237,0.0154,0.0134,0.0097,0.0052,0.0059,0.0061,0.0052,0.0053,0.0125,0.0035,0.0035,0.0035,0.0035,0,0.1045,0.1015,0.089,0.0861,0.0825,0.0733,0.0699,0.064,0.0567,0.0526,0.0446,0.0409,0.0303,0.0253,0.0188,0.0143,0.0126,0.0089,0.0072,0.0095,0.0099,0.0069,0.0064,0.0036,0.0036,0.0035,0.0035,0,0.1136,0.1051,0.0995,0.0884,0.0856,0.0834,0.0739,0.0709,0.0644,0.0593,0.0575,0.0474,0.0411,0.0324,0.0235,0.0191,0.0154,0.0128,0.0182,0.0171,0.0182,0.0182,0.0235,0.0236,0.0149,0.015,0.0151,0,0.1168,0.1143,0.103,0.0997,0.0948,0.0895,0.0852,0.0761,0.0721,0.0627,0.0608,0.0539,0.0479,0.0384,0.0302,0.0233,0.0203,0.0227,0.0192,0.0216,0.0201,0.0203,0.02,0.0235,0.0236,0.0237,0.0238,0,0.1234,0.1194,0.1136,0.1064,0.1016,0.0955,0.089,0.0867,0.0762,0.0721,0.0656,0.061,0.052,0.0452,0.0373,0.032,0.0261,0.025,0.0248,0.027,0.0301,0.0282,0.0202,0.0249,0.0247,0.0247,0.0246,0.0246,0.1295,0.1268,0.1185,0.1123,0.1065,0.1007,0.0972,0.0904,0.0849,0.0767,0.0718,0.0655,0.0575,0.0463,0.0413,0.0363,0.0339,0.0336,0.0335,0.0335,0.0342,0.0312,0.0349,0.0348,0.0348,0.0347,0.0347,0,0.1355,0.1297,0.1242,0.1154,0.1106,0.1057,0.0983,0.0946,0.0892,0.0822,0.0766,0.0692,0.0627,0.0541,0.047,0.0446,0.0418,0.043,0.043,0.0418,0.0368,0.0377,0.0455,0.0455,0.0455,0.0455,0.0455,0.0455,0.138,0.1332,0.1283,0.1205,0.1148,0.1086,0.1048,0.0994,0.0938,0.0859,0.0805,0.075,0.0674,0.0597,0.0535,0.0512,0.0488,0.0509,0.0477,0.0432,0.0422,0.0412,0.0419,0.0505,0.0505,0.0531,0.0531,0.0531]}]]